Dewpoint
39 40 43 46 50 51 54 56 60 60 62 61 61 61 61 61 62 63 63 59 59 58 57 56 56 55 55 55 55 54 54 53 53 52 52 52 52 53 53 53 52 52 54
36 36 38 41 43 45 47 50 52 55 57 60 61 61 62 62 62 63 63 61 59 58 57 57 56 55 55 55 55 54 54 54 53 50 50 48 49 51 52 53 53 52 53
33 33 34 36 38 40 43 46 49 50 50 55 58 58 59 60 60 61 61 62 61 58 58 57 56 56 55 55 55 54 54 53 53 52 49 47 46 48 50 51 52 53 52
29 29 30 31 33 35 39 43 45 46 48 51 56 57 56 56 59 60 61 62 62 60 58 57 57 56 56 55 55 55 54 54 52 53 52 50 48 46 46 50 51 51 51
22 22 23 26 28 30 34 38 41 42 44 48 52 54 55 55 56 59 60 61 61 61 59 58 57 56 56 55 55 55 54 54 53 52 51 50 50 49 47 45 48 50 51
18 19 20 22 25 28 31 34 37 37 40 46 48 52 53 54 53 54 57 58 59 61 60 59 57 56 56 55 55 55 54 54 54 53 52 50 49 48 47 46 46 48 50
18 19 20 21 22 25 28 31 33 34 36 40 45 48 50 53 54 54 54 55 56 58 59 59 58 57 56 56 56 55 55 55 54 54 53 52 50 49 48 47 46 46 48
18 18 19 20 21 22 25 27 30 32 33 35 38 43 47 51 53 54 54 55 55 56 58 59 59 58 57 57 56 56 56 56 55 55 54 53 52 51 49 48 47 47 47
16 16 17 18 20 21 23 26 29 30 31 32 35 38 43 46 49 52 54 55 55 56 56 57 58 58 58 58 57 56 56 56 56 55 55 54 54 52 51 50 50 49 47
15 16 16 17 18 20 22 24 28 30 31 31 33 35 38 42 46 49 53 54 55 56 56 56 57 57 58 58 57 57 56 56 56 56 55 54 54 54 53 51 51 50 51
14 15 15 16 17 19 19 21 24 27 29 30 32 34 36 38 42 47 51 54 55 55 56 56 56 57 57 57 57 57 56 56 55 55 55 54 55 54 54 54 53 51 49
14 14 14 15 16 17 17 19 21 23 27 29 32 33 35 36 39 43 47 50 53 55 55 55 56 56 56 56 57 56 56 56 55 55 55 55 54 54 54 53 53 53 51
13 13 13 14 15 16 16 17 19 20 24 27 32 33 34 36 37 39 44 48 50 54 55 55 55 56 56 56 56 56 56 56 56 56 55 55 54 53 53 53 53 53 53
17 12 12 13 14 15 15 16 18 19 21 25 27 31 31 33 35 38 40 42 46 50 54 55 56 56 56 56 56 56 56 57 56 56 56 55 55 54 53 53 53 53 52
16 16 12 12 13 13 15 15 17 18 20 21 23 24 29 30 33 35 37 39 44 46 53 54 54 55 56 56 56 55 55 55 56 56 56 55 55 55 54 54 54 53 52
14 15 15 11 12 13 13 14 16 17 18 19 21 22 23 27 30 32 35 38 41 44 46 53 53 54 54 55 55 55 55 55 54 54 55 55 54 54 54 54 54 54 53
14 13 14 12 11 13 13 14 16 16 16 17 18 19 21 22 26 29 32 35 38 42 44 47 53 53 53 54 53 53 53 53 53 53 53 54 55 54 55 54 53 53 53
12 14 14 12 12 12 13 14 15 14 15 15 16 18 19 20 23 27 30 32 36 39 41 44 46 52 52 52 52 52 53 54 54 54 54 53 53 53 53 53 53 52 53
14 15 14 12 11 11 12 13 13 14 14 14 15 16 17 19 20 23 27 30 33 36 40 42 44 46 51 51 51 51 51 51 52 53 53 53 52 52 52 53 52 52 52
10 14 11 11 10 10 12 13 12 12 14 14 15 16 17 17 19 21 24 29 32 35 40 41 42 45 47 50 50 49 50 49 50 51 51 52 52 52 52 52 51 50 51
8 10 9 10 11 10 11 11 11 12 13 14 15 15 16 16 19 21 24 28 32 35 39 40 41 43 45 49 49 49 49 49 49 50 50 51 51 51 51 51 52 51 51
7 9 9 8 10 11 10 10 11 13 13 14 14 14 15 16 18 20 22 24 29 34 38 38 39 41 42 44 48 48 48 49 49 49 49 50 51 50 50 50 50 51 50
8 9 9 8 8 10 9 9 11 12 13 13 13 13 14 16 18 18 20 22 26 31 35 37 38 38 40 41 43 46 48 47 48 49 48 48 48 48 48 48 49 49 49
8 9 8 7 7 8 9 9 11 13 13 13 12 12 14 17 16 18 18 20 23 26 30 34 35 37 39 40 41 42 42 43 46 47 48 48 47 47 48 48 48 48 49
8 8 7 7 6 6 8 9 10 13 13 12 11 12 15 15 16 16 17 19 22 25 27 29 33 35 36 38 40 41 41 42 43 43 46 47 47 46 46 47 47 47 47
6 6 4 5 5 5 6 7 10 13 13 12 9 12 14 15 15 15 16 18 21 23 25 29 33 35 37 39 39 39 40 41 42 42 42 44 45 45 45 45 45 45 46
Wind_Speed
7 10 10 10 14 12 12 10 15 11 13 14 13 11 15 12 13 13 16 18 14 15 14 12 14 13 15 12 12 7 7 5 7 8 3 3 4 1 1 4 8 7 5
12 12 12 13 14 11 11 12 10 9 9 10 8 7 10 7 10 12 14 16 16 16 15 15 15 16 14 15 14 11 6 4 11 5 4 2 2 2 2 2 5 6 9
14 13 15 15 13 14 12 11 9 9 7 7 8 7 8 8 6 8 9 13 16 17 17 17 16 14 14 17 17 15 13 8 11 6 5 3 6 1 2 4 5 4 6
14 14 15 16 14 14 12 12 12 11 9 5 6 6 9 9 7 10 10 12 14 17 17 17 16 17 15 15 16 16 14 12 14 4 2 2 5 4 2 3 6 7 9
14 16 17 15 15 14 14 12 13 16 12 11 5 5 5 3 2 4 11 11 12 13 16 16 17 16 15 15 16 13 15 14 11 13 6 3 2 2 3 4 3 5 11
16 16 16 15 17 16 16 15 14 16 15 11 10 4 4 4 5 6 9 10 9 11 14 14 15 15 16 17 17 17 16 14 13 13 12 11 7 8 4 4 5 5 3
16 17 19 18 18 19 18 15 16 16 15 13 11 8 3 4 8 10 11 12 11 9 13 13 15 14 15 16 15 15 16 16 16 17 16 11 11 7 6 5 4 6 4
16 18 17 16 17 17 18 17 16 16 15 14 11 8 5 1 6 8 10 12 12 13 11 14 13 14 15 14 13 14 14 13 15 15 14 14 14 11 9 8 8 4 3
16 17 17 17 16 17 17 16 16 15 16 15 13 11 9 6 4 6 7 10 11 11 11 12 14 14 15 16 15 13 16 16 16 17 15 14 14 14 13 10 9 12 7
16 16 17 17 16 16 16 17 16 15 14 14 13 11 10 8 7 6 7 10 11 12 12 13 13 12 12 11 13 14 13 15 13 13 14 15 10 13 12 12 11 10 12
15 15 15 16 16 17 18 18 19 18 17 16 14 13 12 10 7 5 5 5 8 12 15 15 15 13 14 13 15 13 14 17 15 14 15 16 14 13 12 12 10 14 11
13 14 15 16 17 18 18 18 18 17 17 16 14 13 12 12 11 9 9 9 9 10 13 16 16 15 15 16 17 17 14 16 16 18 13 16 13 15 14 12 15 14 13
14 15 16 17 17 16 17 17 17 18 18 16 14 13 14 14 13 12 12 10 10 11 11 13 15 15 17 17 18 18 16 16 15 14 17 15 15 16 13 14 15 16 14
14 14 16 15 15 16 16 17 17 17 18 16 14 14 15 14 13 12 11 10 11 12 13 11 12 15 17 18 17 17 14 14 14 14 16 16 16 17 16 15 16 14 14
15 16 16 15 15 16 16 17 16 17 17 16 15 16 15 14 13 13 13 13 12 11 12 12 10 11 11 12 14 16 15 16 14 14 15 16 16 19 17 14 15 15 15
15 15 15 16 16 17 17 17 16 16 16 15 15 16 16 16 15 14 14 13 14 13 14 11 12 13 12 14 16 14 14 14 15 16 15 15 20 21 22 22 20 17 17
14 15 15 15 16 15 16 16 16 15 15 14 15 16 16 16 16 16 14 15 15 14 13 14 11 13 12 14 17 18 12 14 15 15 14 14 13 18 16 20 25 25 25
12 12 13 14 15 15 16 15 14 14 14 14 15 15 17 17 17 16 14 15 15 15 13 12 13 13 13 17 20 20 15 11 12 14 16 16 15 16 17 16 17 17 17
9 11 12 13 14 15 16 16 15 15 15 17 17 16 16 16 17 16 16 15 15 15 13 12 11 13 13 16 19 15 12 14 16 15 16 16 17 19 21 17 16 15 15
9 11 13 12 12 15 15 15 16 15 17 18 18 17 16 16 16 16 17 16 15 15 13 12 8 11 14 14 18 19 12 14 17 17 17 21 20 18 20 18 17 17 18
10 10 11 12 13 14 14 13 15 16 17 17 17 15 15 16 14 16 16 16 16 16 14 13 11 9 11 15 17 20 15 17 16 15 14 15 21 22 20 22 17 18 13
10 10 11 13 12 13 15 15 13 15 16 16 16 16 15 14 14 15 15 15 15 15 11 11 12 7 8 15 13 19 22 19 17 17 14 13 17 22 24 22 21 20 16
9 7 7 11 12 12 11 15 17 16 17 16 17 16 15 15 14 15 15 14 13 13 13 11 11 11 8 9 14 16 10 22 18 16 17 17 20 19 17 21 23 23 15
9 8 9 9 12 12 13 13 15 15 15 16 16 15 14 16 16 13 13 12 11 11 13 14 13 12 9 8 9 10 12 13 12 17 17 17 18 17 17 14 17 16 15
9 8 9 9 12 13 13 12 13 13 15 15 15 15 14 15 15 14 14 14 12 12 15 15 15 15 13 7 17 17 13 10 12 12 10 13 14 14 15 14 14 14 15
11 12 11 10 13 13 14 13 11 12 13 14 14 14 14 13 14 15 16 15 15 18 18 18 17 13 15 18 15 20 21 19 16 7 11 14 13 16 16 16 16 15 17
Wind_Direction
78 64 68 79 101 77 109 123 147 143 143 144 159 170 173 178 179 182 183 184 177 168 169 169 164 171 175 174 173 153 141 134 143 126 84 31 17 344 190 178 169 159 158
91 70 65 68 72 86 87 96 105 124 124 136 151 155 164 169 178 181 183 183 180 172 173 174 180 178 171 171 177 168 149 122 165 144 121 185 284 279 314 263 215 194 172
96 76 71 63 58 66 62 76 75 83 96 110 121 107 104 105 132 163 177 192 184 177 177 179 180 184 179 180 181 183 179 163 188 182 150 148 220 220 294 255 246 226 227
71 61 62 57 48 48 51 62 67 69 57 87 147 161 177 186 183 182 191 187 188 185 185 183 183 184 190 185 190 188 186 170 182 209 187 102 145 179 263 271 255 241 240
70 59 55 48 43 42 48 53 61 57 41 53 73 154 173 169 160 174 190 191 190 192 194 191 188 185 186 197 190 183 184 183 181 187 157 161 137 124 167 253 279 265 249
60 53 46 44 39 35 40 44 53 49 40 49 59 98 184 195 202 210 206 206 205 200 202 198 195 193 191 192 195 191 193 193 185 189 194 191 189 200 179 213 231 240 292
54 48 43 38 32 30 30 36 40 41 34 41 47 49 31 216 212 217 220 211 209 210 211 203 202 202 201 201 192 193 192 187 197 194 209 205 203 172 179 178 215 239 256
42 44 40 38 33 28 26 29 34 36 27 29 27 25 26 335 235 231 227 225 219 215 208 207 203 202 195 191 188 187 196 195 201 200 196 207 209 193 190 197 185 248 240
40 36 33 34 29 27 23 23 26 29 27 21 18 14 6 8 344 258 239 238 234 229 206 202 203 202 201 192 188 191 199 193 200 205 199 205 212 207 205 191 197 224 244
41 34 30 25 25 23 20 24 23 27 20 18 12 6 356 350 339 320 255 237 242 233 218 211 210 209 209 203 197 199 195 190 204 206 201 214 207 207 204 204 210 217 240
42 34 29 25 22 22 21 18 17 17 14 9 3 3 1 353 346 330 333 269 247 235 224 216 209 211 223 212 206 206 197 200 200 204 202 214 204 199 200 205 215 230 221
48 38 29 24 24 20 17 15 11 10 6 359 358 1 2 358 357 348 352 349 300 255 229 220 210 211 218 212 205 207 199 205 203 208 197 214 203 211 197 204 222 227 223
47 41 30 24 20 17 14 10 8 4 359 354 0 7 7 3 354 350 353 341 326 283 245 224 218 215 217 211 204 200 201 208 209 200 207 213 204 215 208 211 220 222 220
33 34 29 22 18 15 10 6 4 0 355 357 2 5 360 350 347 347 348 345 335 318 259 231 219 225 219 210 204 190 200 206 208 205 207 213 207 216 215 214 220 220 218
33 27 19 15 12 9 6 3 359 357 354 358 4 1 352 343 342 347 348 346 335 329 297 246 222 216 214 208 196 186 199 207 210 208 208 215 213 215 214 207 216 213 218
26 24 17 13 9 4 1 356 354 353 355 360 359 354 352 349 343 344 344 349 340 344 340 266 232 223 212 214 211 196 199 208 216 220 218 215 219 221 222 220 223 215 220
16 15 11 7 2 357 353 349 347 349 357 358 355 352 351 343 340 340 345 348 338 336 342 332 255 237 227 220 223 221 212 214 216 219 217 221 217 220 227 235 239 239 234
6 5 2 358 353 348 350 345 349 356 358 358 353 349 345 343 337 338 340 338 334 329 329 329 330 253 233 225 227 226 220 228 224 222 221 222 223 216 221 231 240 234 236
354 347 355 355 349 350 348 348 353 356 359 356 349 344 341 336 334 334 330 324 322 317 323 318 323 313 256 234 230 219 212 223 234 235 228 223 225 224 223 222 235 242 236
351 346 350 344 350 350 348 350 354 355 356 348 339 335 335 332 326 322 321 317 310 305 304 310 310 302 299 260 244 227 213 227 233 230 235 231 228 228 224 223 228 235 235
350 351 346 338 342 346 344 354 352 356 341 337 335 333 334 329 323 324 316 318 311 307 297 308 309 319 331 279 246 234 217 224 226 221 220 223 225 229 228 225 225 228 227
346 352 340 332 337 345 343 340 346 339 339 335 333 333 333 331 326 327 319 321 313 309 307 305 307 312 341 338 299 246 226 226 225 227 232 231 226 232 231 231 231 230 215
327 328 334 330 332 339 340 332 329 340 338 337 334 332 332 324 338 330 328 327 326 324 327 316 313 320 332 332 339 336 279 243 227 234 232 227 227 231 242 241 235 229 221
319 330 339 337 329 333 333 322 325 333 336 333 334 334 332 345 337 333 328 321 320 325 321 324 320 310 314 329 318 337 339 338 260 247 246 239 233 221 220 227 237 230 215
310 322 325 321 318 324 320 320 331 331 334 335 339 332 339 344 336 333 318 314 309 308 314 309 308 310 308 315 318 308 303 296 292 313 280 249 229 225 220 222 224 217 212
307 318 318 317 313 321 317 320 328 336 331 333 335 328 339 330 343 331 321 322 321 321 317 312 308 314 313 314 324 324 314 301 290 287 272 251 225 220 219 218 224 213 211